FM-6

Last updated on Thu Nov 21 2024 00:02:42 GMT+0000 (Coordinated Universal Time)

1 39360U 13058A 24324.55750128 -.00000015 00000+0 00000+0 0 9991 2 39360 0.0215 304.1035 0000355 186.3217 13.2099 1.00270181 40309
UTC large
Height (km)
Speed (km/s)
/
Latitude / Longitude
Inclination (degrees)
Orbital Period (minutes)
Azimuth
Elevation
Range (km)
Doppler Factor

Next 0 passes for location: London (51.5072 / 0.1276)

Sorry there are no passes over London.